Time,TemperatureF,DewpointF,PressureIn,WindDirection,WindDirectionDegrees,WindSpeedMPH,WindSpeedGustMPH,Humidity,HourlyPrecipIn,Conditions,Clouds,dailyrainin,SoftwareType,DateUTC
2013-06-23 00:01:00,73.3,69.2,30.16,ESE,121,0.0,0.0,87,0.00,,---,0.00,VWS V14.01,2013-06-23 04:01:00,
2013-06-23 00:02:00,73.3,69.2,30.17,East,89,0.0,0.0,87,0.00,,---,0.00,VWS V14.01,2013-06-23 04:02:00,
2013-06-23 00:07:00,73.4,69.3,30.17,ESE,113,0.0,0.0,87,0.00,,---,0.00,VWS V14.01,2013-06-23 04:07:00,
2013-06-23 00:12:00,73.5,69.4,30.17,ESE,108,0.0,0.0,87,0.00,,---,0.00,VWS V14.01,2013-06-23 04:12:00,
2013-06-23 00:17:00,73.4,69.3,30.17,SE,129,0.0,0.0,87,0.00,,---,0.00,VWS V14.01,2013-06-23 04:17:00,
2013-06-23 00:22:00,73.4,69.3,30.17,East,97,0.0,0.0,87,0.00,,---,0.00,VWS V14.01,2013-06-23 04:22:00,
2013-06-23 00:27:00,73.3,69.2,30.17,ESE,104,0.0,0.0,87,0.00,,---,0.00,VWS V14.01,2013-06-23 04:27:00,
2013-06-23 00:32:00,73.2,69.4,30.17,ESE,105,0.0,0.0,88,0.00,,---,0.00,VWS V14.01,2013-06-23 04:32:00,
2013-06-23 00:37:00,73.0,69.2,30.17,ESE,107,0.0,0.0,88,0.00,,---,0.00,VWS V14.01,2013-06-23 04:37:00,
2013-06-23 00:42:00,72.8,69.0,30.17,ESE,117,0.0,0.0,88,0.00,,---,0.00,VWS V14.01,2013-06-23 04:42:00,
2013-06-23 00:47:00,72.6,69.2,30.17,ESE,107,0.0,0.0,89,0.00,,---,0.00,VWS V14.01,2013-06-23 04:47:00,
2013-06-23 00:52:00,72.6,69.2,30.17,ESE,104,0.0,0.0,89,0.00,,---,0.00,VWS V14.01,2013-06-23 04:52:00,
2013-06-23 00:57:00,72.5,69.1,30.17,SE,130,0.0,0.0,89,0.00,,---,0.00,VWS V14.01,2013-06-23 04:57:00,
2013-06-23 01:02:00,72.3,69.2,30.16,SE,130,0.0,0.0,90,0.00,,---,0.00,VWS V14.01,2013-06-23 05:02:00,
2013-06-23 01:07:00,72.1,69.0,30.16,SSE,148,0.0,0.0,90,0.00,,---,0.00,VWS V14.01,2013-06-23 05:07:00,
2013-06-23 01:12:00,72.0,68.9,30.17,SSE,163,0.0,0.0,90,0.00,,---,0.00,VWS V14.01,2013-06-23 05:12:00,
2013-06-23 01:17:00,72.0,68.9,30.16,SE,145,0.0,0.0,90,0.00,,---,0.00,VWS V14.01,2013-06-23 05:17:00,
2013-06-23 01:22:00,71.9,69.1,30.17,SE,145,0.0,0.0,91,0.00,,---,0.00,VWS V14.01,2013-06-23 05:22:00,
2013-06-23 01:27:00,71.8,69.0,30.16,ESE,110,0.0,0.0,91,0.00,,---,0.00,VWS V14.01,2013-06-23 05:27:00,
2013-06-23 01:32:00,71.8,69.0,30.16,SE,134,0.0,0.0,91,0.00,,---,0.00,VWS V14.01,2013-06-23 05:32:00,
2013-06-23 01:37:00,71.8,69.0,30.16,ESE,122,0.0,0.0,91,0.00,,---,0.00,VWS V14.01,2013-06-23 05:37:00,
2013-06-23 01:42:00,71.8,69.0,30.16,ESE,109,0.0,0.0,91,0.00,,---,0.00,VWS V14.01,2013-06-23 05:42:00,
2013-06-23 01:47:00,71.9,68.8,30.16,ESE,121,0.0,0.0,90,0.00,,---,0.00,VWS V14.01,2013-06-23 05:47:00,
2013-06-23 01:52:00,71.9,69.1,30.16,ESE,118,0.0,0.0,91,0.00,,---,0.00,VWS V14.01,2013-06-23 05:52:00,
2013-06-23 01:57:00,71.8,69.0,30.16,ESE,118,0.0,0.0,91,0.00,,---,0.00,VWS V14.01,2013-06-23 05:57:00,
2013-06-23 02:01:00,71.8,69.0,30.16,ESE,118,0.0,0.0,91,0.00,,---,0.00,VWS V14.01,2013-06-23 06:01:00,
2013-06-23 02:06:00,71.7,68.9,30.16,SE,140,0.0,0.0,91,0.00,,---,0.00,VWS V14.01,2013-06-23 06:06:00,
2013-06-23 02:11:00,71.7,68.9,30.16,SE,132,0.0,0.0,91,0.00,,---,0.00,VWS V14.01,2013-06-23 06:11:00,
2013-06-23 02:16:00,71.6,68.8,30.16,ESE,122,0.0,0.0,91,0.00,,---,0.00,VWS V14.01,2013-06-23 06:16:00,
2013-06-23 02:21:00,71.7,68.9,30.15,ESE,112,0.0,0.0,91,0.00,,---,0.00,VWS V14.01,2013-06-23 06:21:00,
2013-06-23 02:26:00,71.8,69.0,30.16,ESE,114,0.0,0.0,91,0.00,,---,0.00,VWS V14.01,2013-06-23 06:26:00,
2013-06-23 02:31:00,71.5,68.7,30.16,SE,132,0.0,0.0,91,0.00,,---,0.00,VWS V14.01,2013-06-23 06:31:00,
2013-06-23 02:36:00,71.7,68.9,30.15,SSE,149,0.0,0.0,91,0.00,,---,0.00,VWS V14.01,2013-06-23 06:36:00,
2013-06-23 02:41:00,71.9,69.1,30.15,SE,144,0.0,0.0,91,0.00,,---,0.00,VWS V14.01,2013-06-23 06:41:00,
2013-06-23 02:46:00,71.8,69.0,30.15,SE,141,0.0,0.0,91,0.00,,---,0.00,VWS V14.01,2013-06-23 06:46:00,
2013-06-23 02:51:00,71.7,68.9,30.15,South,174,0.0,0.0,91,0.00,,---,0.00,VWS V14.01,2013-06-23 06:51:00,
2013-06-23 02:56:00,71.7,68.9,30.15,SSW,197,0.0,0.0,91,0.00,,---,0.00,VWS V14.01,2013-06-23 06:56:00,
2013-06-23 03:01:00,71.7,68.9,30.15,SSW,196,0.0,0.0,91,0.00,,---,0.00,VWS V14.01,2013-06-23 07:01:00,
2013-06-23 03:06:00,71.6,68.8,30.14,SSW,193,0.0,0.0,91,0.00,,---,0.00,VWS V14.01,2013-06-23 07:06:00,
2013-06-23 03:11:00,71.6,68.8,30.14,SSW,193,0.0,0.0,91,0.00,,---,0.00,VWS V14.01,2013-06-23 07:11:00,
2013-06-23 03:16:00,71.5,68.7,30.14,SSW,193,0.0,0.0,91,0.00,,---,0.00,VWS V14.01,2013-06-23 07:16:00,
2013-06-23 03:21:00,71.4,68.6,30.14,ESE,106,0.0,0.0,91,0.00,,---,0.00,VWS V14.01,2013-06-23 07:21:00,
2013-06-23 03:26:00,71.2,68.8,30.14,ESE,112,0.0,0.0,92,0.00,,---,0.00,VWS V14.01,2013-06-23 07:26:00,
2013-06-23 03:31:00,70.8,68.4,30.14,ESE,114,0.0,0.0,92,0.00,,---,0.00,VWS V14.01,2013-06-23 07:31:00,
2013-06-23 03:36:00,70.5,68.4,30.14,ESE,112,0.0,0.0,93,0.00,,---,0.00,VWS V14.01,2013-06-23 07:36:00,
2013-06-23 03:41:00,70.5,68.4,30.14,East,89,0.0,0.0,93,0.00,,---,0.00,VWS V14.01,2013-06-23 07:41:00,
2013-06-23 03:46:00,70.4,68.6,30.14,ESE,105,0.0,0.0,94,0.00,,---,0.00,VWS V14.01,2013-06-23 07:46:00,
2013-06-23 03:51:00,70.3,68.5,30.14,ESE,110,0.0,0.0,94,0.00,,---,0.00,VWS V14.01,2013-06-23 07:51:00,
2013-06-23 03:56:00,70.2,68.4,30.14,SE,130,0.0,0.0,94,0.00,,---,0.00,VWS V14.01,2013-06-23 07:56:00,
2013-06-23 04:01:00,70.1,68.3,30.14,ESE,109,0.0,0.0,94,0.00,,---,0.00,VWS V14.01,2013-06-23 08:01:00,
2013-06-23 04:06:00,70.1,68.3,30.14,East,82,0.0,0.0,94,0.00,,---,0.00,VWS V14.01,2013-06-23 08:06:00,
2013-06-23 04:11:00,70.0,68.2,30.14,ESE,115,0.0,0.0,94,0.00,,---,0.00,VWS V14.01,2013-06-23 08:11:00,
2013-06-23 04:16:00,69.9,68.4,30.14,SE,142,0.0,0.0,95,0.00,,---,0.00,VWS V14.01,2013-06-23 08:16:00,
2013-06-23 04:21:00,70.0,68.5,30.15,ESE,111,0.0,0.0,95,0.00,,---,0.00,VWS V14.01,2013-06-23 08:21:00,
2013-06-23 04:26:00,69.9,68.4,30.15,ESE,115,0.0,0.0,95,0.00,,---,0.00,VWS V14.01,2013-06-23 08:26:00,
2013-06-23 04:31:00,69.9,68.4,30.15,ESE,118,0.0,0.0,95,0.00,,---,0.00,VWS V14.01,2013-06-23 08:31:00,
2013-06-23 04:36:00,69.9,68.4,30.15,SE,134,0.0,0.0,95,0.00,,---,0.00,VWS V14.01,2013-06-23 08:36:00,
2013-06-23 04:41:00,69.9,68.4,30.15,SE,129,0.0,0.0,95,0.00,,---,0.00,VWS V14.01,2013-06-23 08:41:00,
2013-06-23 04:46:00,69.9,68.4,30.15,ESE,108,0.0,0.0,95,0.00,,---,0.00,VWS V14.01,2013-06-23 08:46:00,
2013-06-23 04:51:00,69.9,68.1,30.15,ESE,121,0.0,0.0,94,0.00,,---,0.00,VWS V14.01,2013-06-23 08:51:00,
2013-06-23 04:56:00,69.8,68.0,30.15,ESE,116,0.0,0.0,94,0.00,,---,0.00,VWS V14.01,2013-06-23 08:56:00,
2013-06-23 05:01:00,69.7,67.9,30.14,SE,134,0.0,0.0,94,0.00,,---,0.00,VWS V14.01,2013-06-23 09:01:00,
2013-06-23 05:06:00,69.6,67.8,30.15,SE,143,0.0,0.0,94,0.00,,---,0.00,VWS V14.01,2013-06-23 09:06:00,
2013-06-23 05:11:00,69.6,67.8,30.15,SE,139,0.0,0.0,94,0.00,,---,0.00,VWS V14.01,2013-06-23 09:11:00,
2013-06-23 05:16:00,69.6,67.8,30.15,SSE,152,0.0,0.0,94,0.00,,---,0.00,VWS V14.01,2013-06-23 09:16:00,
2013-06-23 05:21:00,69.5,67.7,30.15,SSE,166,0.0,0.0,94,0.00,,---,0.00,VWS V14.01,2013-06-23 09:21:00,
2013-06-23 05:26:00,69.4,67.6,30.15,South,172,0.0,0.0,94,0.00,,---,0.00,VWS V14.01,2013-06-23 09:26:00,
2013-06-23 05:31:00,69.3,67.5,30.15,South,172,0.0,0.0,94,0.00,,---,0.00,VWS V14.01,2013-06-23 09:31:00,
2013-06-23 05:36:00,69.3,67.5,30.15,South,172,0.0,0.0,94,0.00,,---,0.00,VWS V14.01,2013-06-23 09:36:00,
2013-06-23 05:41:00,69.2,67.7,30.15,SSE,148,0.0,0.0,95,0.00,,---,0.00,VWS V14.01,2013-06-23 09:41:00,
2013-06-23 05:46:00,69.1,67.6,30.15,SE,129,0.0,0.0,95,0.00,,---,0.00,VWS V14.01,2013-06-23 09:46:00,
2013-06-23 05:51:00,69.1,67.6,30.15,SE,129,0.0,0.0,95,0.00,,---,0.00,VWS V14.01,2013-06-23 09:51:00,
2013-06-23 05:56:00,69.1,67.6,30.15,SE,129,0.0,0.0,95,0.00,,---,0.00,VWS V14.01,2013-06-23 09:56:00,
2013-06-23 06:01:00,69.0,67.5,30.16,SE,129,0.0,0.0,95,0.00,,---,0.00,VWS V14.01,2013-06-23 10:01:00,
2013-06-23 06:06:00,69.0,67.5,30.16,SE,129,0.0,0.0,95,0.00,,---,0.00,VWS V14.01,2013-06-23 10:06:00,
2013-06-23 06:11:00,68.8,67.3,30.16,SE,129,0.0,0.0,95,0.00,,---,0.00,VWS V14.01,2013-06-23 10:11:00,
2013-06-23 06:16:00,68.7,67.2,30.16,SE,130,0.0,0.0,95,0.00,,---,0.00,VWS V14.01,2013-06-23 10:16:00,
2013-06-23 06:21:00,68.6,67.1,30.16,SE,129,0.0,0.0,95,0.00,,---,0.00,VWS V14.01,2013-06-23 10:21:00,
2013-06-23 06:26:00,68.6,67.1,30.16,SE,129,0.0,0.0,95,0.00,,---,0.00,VWS V14.01,2013-06-23 10:26:00,
2013-06-23 06:31:00,68.6,67.1,30.17,SE,130,0.0,0.0,95,0.00,,---,0.00,VWS V14.01,2013-06-23 10:31:00,
2013-06-23 06:36:00,68.6,67.1,30.16,SE,146,0.0,0.0,95,0.00,,---,0.00,VWS V14.01,2013-06-23 10:36:00,
2013-06-23 06:41:00,68.6,67.1,30.17,SSE,150,0.0,0.0,95,0.00,,---,0.00,VWS V14.01,2013-06-23 10:41:00,
2013-06-23 06:46:00,68.5,67.0,30.17,SSE,152,0.0,0.0,95,0.00,,---,0.00,VWS V14.01,2013-06-23 10:46:00,
2013-06-23 06:51:00,68.7,67.2,30.17,SSE,150,0.0,0.0,95,0.00,,---,0.00,VWS V14.01,2013-06-23 10:51:00,
2013-06-23 06:56:00,69.1,67.6,30.17,South,169,0.0,0.0,95,0.00,,---,0.00,VWS V14.01,2013-06-23 10:56:00,
2013-06-23 07:01:00,69.5,67.7,30.17,South,174,0.0,0.0,94,0.00,,---,0.00,VWS V14.01,2013-06-23 11:01:00,
2013-06-23 07:06:00,69.8,67.7,30.17,SSW,207,0.0,0.0,93,0.00,,---,0.00,VWS V14.01,2013-06-23 11:06:00,
2013-06-23 07:11:00,70.0,67.6,30.17,SSW,196,0.0,0.0,92,0.00,,---,0.00,VWS V14.01,2013-06-23 11:11:00,
2013-06-23 07:16:00,70.2,67.8,30.18,SSW,207,0.0,0.0,92,0.00,,---,0.00,VWS V14.01,2013-06-23 11:16:00,
2013-06-23 07:21:00,70.5,67.8,30.18,SSW,195,0.0,0.0,91,0.00,,---,0.00,VWS V14.01,2013-06-23 11:21:00,
2013-06-23 07:26:00,70.7,67.9,30.18,SW,236,0.0,0.0,91,0.00,,---,0.00,VWS V14.01,2013-06-23 11:26:00,
2013-06-23 07:31:00,71.2,68.1,30.19,SW,225,0.0,0.0,90,0.00,,---,0.00,VWS V14.01,2013-06-23 11:31:00,
2013-06-23 07:36:00,71.7,68.3,30.18,SSW,212,0.0,0.0,89,0.00,,---,0.00,VWS V14.01,2013-06-23 11:36:00,
2013-06-23 07:41:00,72.2,68.4,30.19,WSW,238,0.0,0.0,88,0.00,,---,0.00,VWS V14.01,2013-06-23 11:41:00,
2013-06-23 07:46:00,72.9,69.1,30.19,SW,219,0.0,0.0,88,0.00,,---,0.00,VWS V14.01,2013-06-23 11:46:00,
2013-06-23 07:51:00,73.8,69.3,30.19,SSW,210,0.0,0.0,86,0.00,,---,0.00,VWS V14.01,2013-06-23 11:51:00,
2013-06-23 07:56:00,74.6,70.1,30.19,SSE,163,0.0,0.0,86,0.00,,---,0.00,VWS V14.01,2013-06-23 11:56:00,
2013-06-23 08:01:00,74.9,69.7,30.20,South,170,0.0,0.0,84,0.00,,---,0.00,VWS V14.01,2013-06-23 12:01:00,
2013-06-23 08:06:00,74.9,70.1,30.20,SW,225,0.0,0.0,85,0.00,,---,0.00,VWS V14.01,2013-06-23 12:06:00,
2013-06-23 08:11:00,74.8,70.0,30.20,SSE,162,0.0,0.0,85,0.00,,---,0.00,VWS V14.01,2013-06-23 12:11:00,
2013-06-23 08:16:00,74.8,70.0,30.20,SE,135,0.0,0.0,85,0.00,,---,0.00,VWS V14.01,2013-06-23 12:16:00,
2013-06-23 08:21:00,75.0,70.2,30.20,SSW,212,0.0,0.0,85,0.00,,---,0.00,VWS V14.01,2013-06-23 12:21:00,
2013-06-23 08:26:00,74.9,70.4,30.20,SSW,197,0.0,0.0,86,0.00,,---,0.00,VWS V14.01,2013-06-23 12:26:00,
2013-06-23 08:31:00,74.9,70.4,30.20,SW,217,0.0,0.0,86,0.00,,---,0.00,VWS V14.01,2013-06-23 12:31:00,
2013-06-23 08:36:00,74.7,70.6,30.20,SSW,205,0.0,0.0,87,0.00,,---,0.00,VWS V14.01,2013-06-23 12:36:00,
2013-06-23 08:41:00,74.5,70.4,30.20,SSE,165,0.0,0.0,87,0.00,,---,0.00,VWS V14.01,2013-06-23 12:41:00,
2013-06-23 08:46:00,74.3,70.5,30.20,South,180,0.0,0.0,88,0.00,,---,0.00,VWS V14.01,2013-06-23 12:46:00,
2013-06-23 08:51:00,74.2,70.8,30.20,SW,217,0.0,0.0,89,0.00,,---,0.00,VWS V14.01,2013-06-23 12:51:00,
2013-06-23 08:56:00,74.1,70.7,30.20,South,191,0.0,0.0,89,0.00,,---,0.00,VWS V14.01,2013-06-23 12:56:00,
2013-06-23 09:01:00,74.1,70.7,30.20,South,190,0.0,0.0,89,0.00,,---,0.00,VWS V14.01,2013-06-23 13:01:00,
2013-06-23 09:06:00,74.2,70.8,30.20,West,270,0.0,0.0,89,0.00,,---,0.00,VWS V14.01,2013-06-23 13:06:00,
2013-06-23 09:11:00,74.4,70.9,30.20,SW,224,0.0,0.0,89,0.00,,---,0.00,VWS V14.01,2013-06-23 13:11:00,
2013-06-23 09:16:00,74.6,71.2,30.20,SW,236,0.0,0.0,89,0.00,,---,0.00,VWS V14.01,2013-06-23 13:16:00,
2013-06-23 09:21:00,74.8,71.3,30.20,West,262,0.0,0.0,89,0.00,,---,0.00,VWS V14.01,2013-06-23 13:21:00,
2013-06-23 09:26:00,74.9,71.1,30.21,WSW,253,0.0,0.0,88,0.00,,---,0.00,VWS V14.01,2013-06-23 13:26:00,
2013-06-23 09:31:00,74.7,70.9,30.21,WSW,239,0.0,0.0,88,0.00,,---,0.00,VWS V14.01,2013-06-23 13:31:00,
2013-06-23 09:36:00,74.9,71.4,30.21,WSW,256,0.0,0.0,89,0.00,,---,0.00,VWS V14.01,2013-06-23 13:36:00,
2013-06-23 09:41:00,75.1,71.6,30.21,West,269,0.0,0.0,89,0.00,,---,0.00,VWS V14.01,2013-06-23 13:41:00,
2013-06-23 09:46:00,75.0,71.2,30.21,SW,220,0.0,0.0,88,0.00,,---,0.00,VWS V14.01,2013-06-23 13:46:00,
2013-06-23 09:51:00,75.1,71.3,30.21,WSW,243,0.0,0.0,88,0.00,,---,0.00,VWS V14.01,2013-06-23 13:51:00,
2013-06-23 09:56:00,75.2,71.1,30.21,SW,235,0.0,0.0,87,0.00,,---,0.00,VWS V14.01,2013-06-23 13:56:00,
2013-06-23 10:01:00,75.6,71.8,30.21,West,260,0.0,0.0,88,0.00,,---,0.00,VWS V14.01,2013-06-23 14:01:00,
2013-06-23 10:06:00,76.1,71.9,30.21,WSW,239,0.0,0.0,87,0.00,,---,0.00,VWS V14.01,2013-06-23 14:06:00,
2013-06-23 10:11:00,76.6,72.1,30.21,West,263,0.0,0.0,86,0.00,,---,0.00,VWS V14.01,2013-06-23 14:11:00,
2013-06-23 10:16:00,76.9,72.1,30.21,SW,231,0.0,0.0,85,0.00,,---,0.00,VWS V14.01,2013-06-23 14:16:00,
2013-06-23 10:21:00,77.3,72.4,30.21,West,260,0.0,0.0,85,0.00,,---,0.00,VWS V14.01,2013-06-23 14:21:00,
2013-06-23 10:26:00,77.9,72.7,30.20,South,170,0.0,0.0,84,0.00,,---,0.00,VWS V14.01,2013-06-23 14:26:00,
2013-06-23 10:32:00,78.5,72.6,30.20,West,276,0.0,0.0,82,0.00,,---,0.00,VWS V14.01,2013-06-23 14:32:00,
2013-06-23 10:37:00,78.5,71.8,30.20,West,269,0.0,0.0,80,0.00,,---,0.00,VWS V14.01,2013-06-23 14:37:00,
2013-06-23 10:45:00,78.5,71.4,30.21,West,278,0.0,0.0,79,0.00,,---,0.00,VWS V14.01,2013-06-23 14:45:00,
2013-06-23 10:50:00,79.1,72.0,30.21,SW,224,0.0,0.0,79,0.00,,---,0.00,VWS V14.01,2013-06-23 14:50:00,
2013-06-23 10:55:00,79.8,72.7,30.21,West,280,0.0,0.0,79,0.00,,---,0.00,VWS V14.01,2013-06-23 14:55:00,
2013-06-23 11:00:00,79.9,72.1,30.20,SW,225,0.0,0.0,77,0.00,,---,0.00,VWS V14.01,2013-06-23 15:00:00,
2013-06-23 11:05:00,79.9,71.7,30.21,WNW,288,0.0,0.0,76,0.00,,---,0.00,VWS V14.01,2013-06-23 15:05:00,
2013-06-23 11:10:00,79.9,71.7,30.21,WNW,291,0.0,0.0,76,0.00,,---,0.00,VWS V14.01,2013-06-23 15:10:00,
2013-06-23 11:15:00,80.4,72.5,30.20,West,268,0.0,0.0,77,0.00,,---,0.00,VWS V14.01,2013-06-23 15:15:00,
2013-06-23 11:20:00,80.4,71.4,30.20,NW,309,0.0,0.0,74,0.00,,---,0.00,VWS V14.01,2013-06-23 15:20:00,
2013-06-23 11:25:00,80.9,71.8,30.20,NE,37,0.0,0.0,74,0.00,,---,0.00,VWS V14.01,2013-06-23 15:25:00,
2013-06-23 11:30:00,81.8,73.1,30.20,WSW,248,0.0,0.0,75,0.00,,---,0.00,VWS V14.01,2013-06-23 15:30:00,
2013-06-23 11:35:00,82.3,71.5,30.20,SSE,149,0.0,0.0,70,0.00,,---,0.00,VWS V14.01,2013-06-23 15:35:00,
2013-06-23 11:40:00,82.2,71.9,30.20,WSW,240,0.0,0.0,71,0.00,,---,0.00,VWS V14.01,2013-06-23 15:40:00,
2013-06-23 11:45:00,82.0,72.5,30.20,SW,221,0.0,0.0,73,0.00,,---,0.00,VWS V14.01,2013-06-23 15:45:00,
2013-06-23 11:50:00,82.3,72.4,30.20,SE,124,0.0,0.0,72,0.00,,---,0.00,VWS V14.01,2013-06-23 15:50:00,
2013-06-23 11:55:00,82.7,73.2,30.20,West,270,0.0,0.0,73,0.00,,---,0.00,VWS V14.01,2013-06-23 15:55:00,
2013-06-23 12:01:00,82.5,72.2,30.20,ENE,69,0.0,0.0,71,0.00,,---,0.00,VWS V14.01,2013-06-23 16:01:00,
2013-06-23 12:06:00,82.2,71.9,30.20,ENE,60,0.0,0.0,71,0.00,,---,0.00,VWS V14.01,2013-06-23 16:06:00,
2013-06-23 12:11:00,81.9,72.0,30.20,WNW,290,0.0,0.0,72,0.00,,---,0.00,VWS V14.01,2013-06-23 16:11:00,
2013-06-23 12:16:00,81.1,71.6,30.20,WNW,291,0.0,0.0,73,0.00,,---,0.00,VWS V14.01,2013-06-23 16:16:00,
2013-06-23 12:21:00,80.7,70.8,30.20,SW,226,0.0,0.0,72,0.00,,---,0.00,VWS V14.01,2013-06-23 16:21:00,
2013-06-23 12:26:00,80.7,70.0,30.20,WSW,252,0.0,0.0,70,0.00,,---,0.00,VWS V14.01,2013-06-23 16:26:00,
2013-06-23 12:31:00,80.3,70.5,30.20,WNW,285,0.0,0.0,72,0.00,,---,0.00,VWS V14.01,2013-06-23 16:31:00,
2013-06-23 12:36:00,80.4,72.2,30.19,WNW,285,0.0,0.0,76,0.00,,---,0.00,VWS V14.01,2013-06-23 16:36:00,
2013-06-23 12:41:00,80.4,70.6,30.19,WNW,285,0.0,0.0,72,0.00,,---,0.00,VWS V14.01,2013-06-23 16:41:00,
2013-06-23 12:46:00,80.3,71.3,30.19,WNW,285,0.0,0.0,74,0.00,,---,0.00,VWS V14.01,2013-06-23 16:46:00,
2013-06-23 12:51:00,80.2,71.6,30.19,WNW,285,0.0,0.0,75,0.00,,---,0.00,VWS V14.01,2013-06-23 16:51:00,
2013-06-23 12:56:00,80.7,71.2,30.19,WNW,285,0.0,0.0,73,0.00,,---,0.00,VWS V14.01,2013-06-23 16:56:00,
2013-06-23 12:57:00,80.9,71.4,30.19,WNW,285,0.0,0.0,73,0.00,,---,0.00,VWS V14.01,2013-06-23 16:57:00,
2013-06-23 13:03:00,81.0,72.3,30.19,West,271,0.0,0.0,75,0.00,,---,0.00,VWS V14.01,2013-06-23 17:03:00,
2013-06-23 13:08:00,80.2,71.2,30.19,WNW,296,0.0,0.0,74,0.00,,---,0.00,VWS V14.01,2013-06-23 17:08:00,
2013-06-23 13:13:00,79.5,71.7,30.19,NNW,340,0.0,0.0,77,0.00,,---,0.00,VWS V14.01,2013-06-23 17:13:00,
2013-06-23 13:18:00,79.6,72.1,30.18,NW,319,0.0,0.0,78,0.00,,---,0.00,VWS V14.01,2013-06-23 17:18:00,
2013-06-23 13:23:00,79.5,71.7,30.18,West,277,0.0,0.0,77,0.00,,---,0.00,VWS V14.01,2013-06-23 17:23:00,
2013-06-23 13:28:00,79.6,72.1,30.18,WNW,299,0.0,0.0,78,0.00,,---,0.00,VWS V14.01,2013-06-23 17:28:00,
2013-06-23 13:33:00,79.5,72.0,30.18,WNW,300,0.0,0.0,78,0.00,,---,0.00,VWS V14.01,2013-06-23 17:33:00,
2013-06-23 13:38:00,78.8,72.8,30.18,NW,309,0.0,0.0,82,0.01,,---,0.01,VWS V14.01,2013-06-23 17:38:00,
2013-06-23 13:43:00,78.3,73.1,30.18,NW,314,0.0,0.0,84,0.01,,---,0.01,VWS V14.01,2013-06-23 17:43:00,
2013-06-23 13:48:00,78.4,73.9,30.18,NW,315,0.0,0.0,86,0.01,,---,0.01,VWS V14.01,2013-06-23 17:48:00,
2013-06-23 13:53:00,78.4,73.5,30.18,West,268,0.0,0.0,85,0.01,,---,0.01,VWS V14.01,2013-06-23 17:53:00,
2013-06-23 13:58:00,78.1,73.2,30.18,West,278,0.0,0.0,85,0.02,,---,0.02,VWS V14.01,2013-06-23 17:58:00,
2013-06-23 14:03:00,78.0,71.3,30.17,West,278,0.0,0.0,80,0.02,,---,0.02,VWS V14.01,2013-06-23 18:03:00,
2013-06-23 14:08:00,78.5,72.6,30.17,West,276,0.0,0.0,82,0.03,,---,0.03,VWS V14.01,2013-06-23 18:08:00,
2013-06-23 14:13:00,78.7,71.3,30.17,West,266,0.0,0.0,78,0.03,,---,0.03,VWS V14.01,2013-06-23 18:13:00,
2013-06-23 14:18:00,78.8,72.5,30.16,West,280,0.0,0.0,81,0.03,,---,0.03,VWS V14.01,2013-06-23 18:18:00,
2013-06-23 14:23:00,78.8,72.5,30.16,WNW,285,0.0,0.0,81,0.03,,---,0.03,VWS V14.01,2013-06-23 18:23:00,
2013-06-23 14:28:00,78.6,71.9,30.16,WNW,298,0.0,0.0,80,0.03,,---,0.03,VWS V14.01,2013-06-23 18:28:00,
2013-06-23 14:33:00,78.5,72.2,30.16,NW,316,0.0,0.0,81,0.03,,---,0.03,VWS V14.01,2013-06-23 18:33:00,
2013-06-23 14:38:00,78.5,72.9,30.16,NW,313,0.0,0.0,83,0.02,,---,0.03,VWS V14.01,2013-06-23 18:38:00,
2013-06-23 14:43:00,78.4,73.2,30.16,WNW,293,0.0,0.0,84,0.02,,---,0.03,VWS V14.01,2013-06-23 18:43:00,
2013-06-23 14:48:00,77.9,71.6,30.15,NW,305,0.0,0.0,81,0.02,,---,0.03,VWS V14.01,2013-06-23 18:48:00,
2013-06-23 14:53:00,77.4,71.5,30.16,WNW,282,0.0,0.0,82,0.02,,---,0.03,VWS V14.01,2013-06-23 18:53:00,
2013-06-23 14:58:00,77.2,71.6,30.16,WNW,287,0.0,0.0,83,0.01,,---,0.03,VWS V14.01,2013-06-23 18:58:00,
2013-06-23 15:03:00,77.0,71.8,30.16,NW,312,0.0,0.0,84,0.01,,---,0.03,VWS V14.01,2013-06-23 19:03:00,
2013-06-23 15:08:00,76.7,71.9,30.16,ENE,64,0.0,0.0,85,0.00,,---,0.03,VWS V14.01,2013-06-23 19:08:00,
2013-06-23 15:13:00,76.8,72.3,30.15,East,87,0.0,0.0,86,0.00,,---,0.03,VWS V14.01,2013-06-23 19:13:00,
2013-06-23 15:18:00,77.1,72.6,30.15,East,94,0.0,0.0,86,0.00,,---,0.03,VWS V14.01,2013-06-23 19:18:00,
2013-06-23 15:23:00,77.9,73.0,30.15,East,94,0.0,0.0,85,0.00,,---,0.03,VWS V14.01,2013-06-23 19:23:00,
2013-06-23 15:28:00,78.8,73.2,30.15,ENE,70,0.0,0.0,83,0.00,,---,0.03,VWS V14.01,2013-06-23 19:28:00,
2013-06-23 15:33:00,79.3,72.6,30.15,ENE,70,0.0,0.0,80,0.00,,---,0.03,VWS V14.01,2013-06-23 19:33:00,
2013-06-23 15:38:00,79.7,73.0,30.15,NE,44,0.0,0.0,80,0.00,,---,0.03,VWS V14.01,2013-06-23 19:38:00,
2013-06-23 15:43:00,79.8,73.4,30.14,NE,36,0.0,0.0,81,0.00,,---,0.03,VWS V14.01,2013-06-23 19:43:00,
2013-06-23 15:48:00,79.8,72.3,30.14,ENE,71,0.0,0.0,78,0.00,,---,0.03,VWS V14.01,2013-06-23 19:48:00,
2013-06-23 15:53:00,80.0,73.3,30.14,ENE,66,0.0,0.0,80,0.00,,---,0.03,VWS V14.01,2013-06-23 19:53:00,
2013-06-23 15:58:00,80.2,73.1,30.14,NE,49,0.0,0.0,79,0.00,,---,0.03,VWS V14.01,2013-06-23 19:58:00,
2013-06-23 16:03:00,80.3,72.8,30.14,NE,50,0.0,0.0,78,0.00,,---,0.03,VWS V14.01,2013-06-23 20:03:00,
2013-06-23 16:08:00,80.3,73.2,30.14,ENE,69,0.0,0.0,79,0.00,,---,0.03,VWS V14.01,2013-06-23 20:08:00,
2013-06-23 16:13:00,79.9,72.4,30.14,NE,56,0.0,0.0,78,0.00,,---,0.03,VWS V14.01,2013-06-23 20:13:00,
2013-06-23 16:18:00,80.1,73.0,30.13,ENE,68,0.0,0.0,79,0.00,,---,0.03,VWS V14.01,2013-06-23 20:18:00,
2013-06-23 16:23:00,80.1,72.6,30.13,East,84,0.0,0.0,78,0.00,,---,0.03,VWS V14.01,2013-06-23 20:23:00,
2013-06-23 16:28:00,79.9,71.7,30.14,East,84,0.0,0.0,76,0.00,,---,0.03,VWS V14.01,2013-06-23 20:28:00,
2013-06-23 16:33:00,79.9,72.4,30.13,NE,51,0.0,0.0,78,0.00,,---,0.03,VWS V14.01,2013-06-23 20:33:00,
2013-06-23 16:38:00,79.7,71.9,30.14,ESE,121,0.0,0.0,77,0.00,,---,0.03,VWS V14.01,2013-06-23 20:38:00,
2013-06-23 16:43:00,79.2,72.9,30.14,ESE,113,0.0,0.0,81,0.00,,---,0.03,VWS V14.01,2013-06-23 20:43:00,
2013-06-23 16:48:00,78.1,72.2,30.14,SE,146,0.0,0.0,82,0.00,,---,0.03,VWS V14.01,2013-06-23 20:48:00,
2013-06-23 16:53:00,76.9,70.6,30.15,ESE,113,0.0,0.0,81,0.00,,---,0.03,VWS V14.01,2013-06-23 20:53:00,
2013-06-23 16:58:00,75.8,69.6,30.15,SE,132,0.0,0.0,81,0.00,,---,0.03,VWS V14.01,2013-06-23 20:58:00,
2013-06-23 17:03:00,74.8,68.6,30.15,SSE,158,0.0,0.0,81,0.00,,---,0.03,VWS V14.01,2013-06-23 21:03:00,
2013-06-23 17:08:00,74.0,68.9,30.16,South,190,0.0,0.0,84,0.00,,---,0.03,VWS V14.01,2013-06-23 21:08:00,
2013-06-23 17:13:00,73.2,68.4,30.16,South,177,0.0,0.0,85,0.00,,---,0.03,VWS V14.01,2013-06-23 21:13:00,
2013-06-23 17:18:00,72.5,68.4,30.16,SSE,157,0.0,0.0,87,0.03,,---,0.06,VWS V14.01,2013-06-23 21:18:00,
2013-06-23 17:23:00,71.5,68.1,30.16,SSE,153,0.0,0.0,89,0.08,,---,0.11,VWS V14.01,2013-06-23 21:23:00,
2013-06-23 17:28:00,70.7,67.3,30.15,SSE,156,0.0,0.0,89,0.17,,---,0.20,VWS V14.01,2013-06-23 21:28:00,
2013-06-23 17:33:00,70.6,67.5,30.15,SE,126,0.0,0.0,90,0.21,,---,0.24,VWS V14.01,2013-06-23 21:33:00,
2013-06-23 17:38:00,70.2,67.4,30.15,SE,144,0.0,0.0,91,0.24,,---,0.27,VWS V14.01,2013-06-23 21:38:00,
2013-06-23 17:43:00,70.0,67.6,30.15,South,176,0.0,0.0,92,0.25,,---,0.28,VWS V14.01,2013-06-23 21:43:00,
2013-06-23 17:48:00,70.1,67.7,30.15,SE,144,0.0,0.0,92,0.26,,---,0.29,VWS V14.01,2013-06-23 21:48:00,
2013-06-23 17:53:00,70.2,67.8,30.14,SSE,158,0.0,0.0,92,0.27,,---,0.30,VWS V14.01,2013-06-23 21:53:00,
2013-06-23 17:58:00,70.6,68.2,30.14,SE,144,0.0,0.0,92,0.28,,---,0.31,VWS V14.01,2013-06-23 21:58:00,
2013-06-23 18:03:00,70.9,68.2,30.14,SSE,152,0.0,0.0,91,0.29,,---,0.32,VWS V14.01,2013-06-23 22:03:00,
2013-06-23 18:08:00,71.3,68.5,30.14,ESE,121,0.0,0.0,91,0.29,,---,0.32,VWS V14.01,2013-06-23 22:08:00,
2013-06-23 18:13:00,71.6,67.2,30.14,East,98,0.0,0.0,86,0.29,,---,0.32,VWS V14.01,2013-06-23 22:13:00,
2013-06-23 18:18:00,72.0,68.3,30.14,South,169,0.0,0.0,88,0.29,,---,0.32,VWS V14.01,2013-06-23 22:18:00,
2013-06-23 18:23:00,72.3,67.2,30.14,East,89,0.0,0.0,84,0.24,,---,0.32,VWS V14.01,2013-06-23 22:23:00,
2013-06-23 18:24:00,72.4,67.3,30.14,East,89,0.0,0.0,84,0.24,,---,0.32,VWS V14.01,2013-06-23 22:24:00,
2013-06-23 18:29:00,73.3,67.8,30.14,ENE,68,0.0,0.0,83,0.15,,---,0.32,VWS V14.01,2013-06-23 22:29:00,
2013-06-23 18:34:00,73.6,68.8,30.14,ENE,68,0.0,0.0,85,0.10,,---,0.32,VWS V14.01,2013-06-23 22:34:00,
2013-06-23 18:39:00,73.2,69.4,30.14,ENE,68,0.0,0.0,88,0.06,,---,0.32,VWS V14.01,2013-06-23 22:39:00,
2013-06-23 18:44:00,72.8,69.4,30.14,ESE,102,0.0,0.0,89,0.04,,---,0.32,VWS V14.01,2013-06-23 22:44:00,
2013-06-23 18:49:00,72.7,69.9,30.14,SE,128,0.0,0.0,91,0.04,,---,0.32,VWS V14.01,2013-06-23 22:49:00,
2013-06-23 18:54:00,72.6,70.2,30.14,SE,136,0.0,0.0,92,0.03,,---,0.32,VWS V14.01,2013-06-23 22:54:00,
2013-06-23 18:59:00,72.5,70.4,30.14,SE,127,0.0,0.0,93,0.01,,---,0.32,VWS V14.01,2013-06-23 22:59:00,
2013-06-23 19:04:00,72.4,70.3,30.14,ESE,115,0.0,0.0,93,0.01,,---,0.32,VWS V14.01,2013-06-23 23:04:00,
2013-06-23 19:09:00,72.3,70.2,30.14,ESE,117,0.0,0.0,93,0.00,,---,0.32,VWS V14.01,2013-06-23 23:09:00,
2013-06-23 19:14:00,72.3,70.5,30.13,SE,142,0.0,0.0,94,0.00,,---,0.32,VWS V14.01,2013-06-23 23:14:00,
2013-06-23 19:19:00,72.3,70.5,30.14,SSE,161,0.0,0.0,94,0.00,,---,0.32,VWS V14.01,2013-06-23 23:19:00,
2013-06-23 19:24:00,72.3,70.2,30.14,South,185,0.0,0.0,93,0.00,,---,0.32,VWS V14.01,2013-06-23 23:24:00,
2013-06-23 19:29:00,72.5,70.7,30.13,SW,233,0.0,0.0,94,0.00,,---,0.32,VWS V14.01,2013-06-23 23:29:00,
2013-06-23 19:34:00,72.6,70.8,30.13,SW,233,0.0,0.0,94,0.00,,---,0.32,VWS V14.01,2013-06-23 23:34:00,
2013-06-23 19:39:00,72.7,70.9,30.13,SW,233,0.0,0.0,94,0.00,,---,0.32,VWS V14.01,2013-06-23 23:39:00,
2013-06-23 19:44:00,72.6,70.8,30.13,SW,236,0.0,0.0,94,0.00,,---,0.32,VWS V14.01,2013-06-23 23:44:00,
2013-06-23 19:49:00,72.6,70.8,30.13,WSW,257,0.0,0.0,94,0.00,,---,0.32,VWS V14.01,2013-06-23 23:49:00,
2013-06-23 19:54:00,72.5,70.7,30.13,WSW,257,0.0,0.0,94,0.00,,---,0.32,VWS V14.01,2013-06-23 23:54:00,
2013-06-23 19:59:00,72.4,70.6,30.13,WSW,257,0.0,0.0,94,0.00,,---,0.32,VWS V14.01,2013-06-23 23:59:00,
2013-06-23 20:04:00,72.4,70.6,30.13,SE,138,0.0,0.0,94,0.00,,---,0.32,VWS V14.01,2013-06-24 00:04:00,
2013-06-23 20:09:00,72.2,70.4,30.12,SE,126,0.0,0.0,94,0.00,,---,0.32,VWS V14.01,2013-06-24 00:09:00,
2013-06-23 20:14:00,72.1,70.6,30.13,SSE,148,0.0,0.0,95,0.00,,---,0.32,VWS V14.01,2013-06-24 00:14:00,
2013-06-23 20:19:00,72.1,70.6,30.13,SSE,148,0.0,0.0,95,0.00,,---,0.32,VWS V14.01,2013-06-24 00:19:00,
2013-06-23 20:24:00,72.1,70.6,30.14,SSE,165,0.0,0.0,95,0.00,,---,0.32,VWS V14.01,2013-06-24 00:24:00,
2013-06-23 20:29:00,72.1,70.6,30.14,SSE,165,0.0,0.0,95,0.00,,---,0.32,VWS V14.01,2013-06-24 00:29:00,
2013-06-23 20:34:00,72.0,70.5,30.14,NNW,329,0.0,0.0,95,0.00,,---,0.32,VWS V14.01,2013-06-24 00:34:00,
2013-06-23 20:39:00,71.8,70.3,30.15,NW,314,0.0,0.0,95,0.00,,---,0.32,VWS V14.01,2013-06-24 00:39:00,
2013-06-23 20:44:00,71.7,70.5,30.16,NNW,344,0.0,0.0,96,0.00,,---,0.32,VWS V14.01,2013-06-24 00:44:00,
2013-06-23 20:49:00,71.6,70.4,30.16,NNW,343,0.0,0.0,96,0.00,,---,0.32,VWS V14.01,2013-06-24 00:49:00,
2013-06-23 20:54:00,71.6,70.4,30.16,NNW,329,0.0,0.0,96,0.00,,---,0.32,VWS V14.01,2013-06-24 00:54:00,
2013-06-23 20:59:00,71.4,70.2,30.16,NW,325,0.0,0.0,96,0.00,,---,0.32,VWS V14.01,2013-06-24 00:59:00,
2013-06-23 21:04:00,71.3,70.1,30.16,NNW,341,0.0,0.0,96,0.00,,---,0.32,VWS V14.01,2013-06-24 01:04:00,
2013-06-23 21:09:00,71.2,70.0,30.17,NNW,340,0.0,0.0,96,0.00,,---,0.32,VWS V14.01,2013-06-24 01:09:00,
2013-06-23 21:14:00,71.2,70.0,30.16,NNW,340,0.0,0.0,96,0.00,,---,0.32,VWS V14.01,2013-06-24 01:14:00,
2013-06-23 21:19:00,71.2,70.0,30.17,NE,47,0.0,0.0,96,0.00,,---,0.32,VWS V14.01,2013-06-24 01:19:00,
2013-06-23 21:24:00,71.2,70.0,30.17,NE,47,0.0,0.0,96,0.00,,---,0.32,VWS V14.01,2013-06-24 01:24:00,
2013-06-23 21:29:00,71.3,70.1,30.17,ENE,63,0.0,0.0,96,0.00,,---,0.32,VWS V14.01,2013-06-24 01:29:00,
2013-06-23 21:34:00,71.3,70.1,30.17,ENE,63,0.0,0.0,96,0.00,,---,0.32,VWS V14.01,2013-06-24 01:34:00,
2013-06-23 21:39:00,71.3,70.1,30.17,ENE,64,0.0,0.0,96,0.00,,---,0.32,VWS V14.01,2013-06-24 01:39:00,
2013-06-23 21:44:00,71.3,70.1,30.17,ENE,63,0.0,0.0,96,0.00,,---,0.32,VWS V14.01,2013-06-24 01:44:00,
2013-06-23 21:49:00,71.3,70.1,30.17,ESE,116,0.0,0.0,96,0.00,,---,0.32,VWS V14.01,2013-06-24 01:49:00,
2013-06-23 21:54:00,71.4,70.5,30.17,ESE,105,0.0,0.0,97,0.00,,---,0.32,VWS V14.01,2013-06-24 01:54:00,
2013-06-23 21:59:00,71.4,70.2,30.17,ESE,114,0.0,0.0,96,0.00,,---,0.32,VWS V14.01,2013-06-24 01:59:00,
2013-06-23 22:04:00,71.4,70.5,30.17,SE,132,0.0,0.0,97,0.00,,---,0.32,VWS V14.01,2013-06-24 02:04:00,
2013-06-23 22:09:00,71.7,70.8,30.17,SE,136,0.0,0.0,97,0.00,,---,0.32,VWS V14.01,2013-06-24 02:09:00,
2013-06-23 22:14:00,72.0,71.1,30.17,ESE,110,0.0,0.0,97,0.00,,---,0.32,VWS V14.01,2013-06-24 02:14:00,
2013-06-23 22:19:00,72.2,71.3,30.17,SE,126,0.0,0.0,97,0.00,,---,0.32,VWS V14.01,2013-06-24 02:19:00,
2013-06-23 22:24:00,72.5,71.6,30.17,ESE,121,0.0,0.0,97,0.00,,---,0.32,VWS V14.01,2013-06-24 02:24:00,
2013-06-23 22:29:00,72.7,71.8,30.18,SE,125,0.0,0.0,97,0.00,,---,0.32,VWS V14.01,2013-06-24 02:29:00,
2013-06-23 22:34:00,72.9,72.0,30.18,SE,129,0.0,0.0,97,0.00,,---,0.32,VWS V14.01,2013-06-24 02:34:00,
2013-06-23 22:39:00,73.1,71.9,30.18,SE,135,0.0,0.0,96,0.00,,---,0.32,VWS V14.01,2013-06-24 02:39:00,
2013-06-23 22:44:00,73.2,72.0,30.18,SE,132,0.0,0.0,96,0.00,,---,0.32,VWS V14.01,2013-06-24 02:44:00,
2013-06-23 22:49:00,73.2,72.0,30.18,SE,141,0.0,0.0,96,0.00,,---,0.32,VWS V14.01,2013-06-24 02:49:00,
2013-06-23 22:54:00,73.3,72.1,30.18,SE,125,0.0,0.0,96,0.00,,---,0.32,VWS V14.01,2013-06-24 02:54:00,
2013-06-23 22:59:00,73.2,71.7,30.18,SE,132,0.0,0.0,95,0.00,,---,0.32,VWS V14.01,2013-06-24 02:59:00,
2013-06-23 23:04:00,73.1,71.6,30.18,SE,129,0.0,0.0,95,0.00,,---,0.32,VWS V14.01,2013-06-24 03:04:00,
2013-06-23 23:09:00,72.9,71.4,30.18,SE,138,0.0,0.0,95,0.00,,---,0.32,VWS V14.01,2013-06-24 03:09:00,
2013-06-23 23:14:00,72.9,71.4,30.18,SE,124,0.0,0.0,95,0.00,,---,0.32,VWS V14.01,2013-06-24 03:14:00,
2013-06-23 23:19:00,72.9,71.4,30.18,SE,137,0.0,0.0,95,0.00,,---,0.32,VWS V14.01,2013-06-24 03:19:00,
2013-06-23 23:24:00,72.9,71.4,30.18,SSE,151,0.0,0.0,95,0.00,,---,0.32,VWS V14.01,2013-06-24 03:24:00,
2013-06-23 23:29:00,72.9,71.7,30.18,ESE,122,0.0,0.0,96,0.00,,---,0.32,VWS V14.01,2013-06-24 03:29:00,
2013-06-23 23:34:00,72.8,71.3,30.18,SE,125,0.0,0.0,95,0.00,,---,0.32,VWS V14.01,2013-06-24 03:34:00,
2013-06-23 23:39:00,72.8,71.6,30.18,ESE,123,0.0,0.0,96,0.00,,---,0.32,VWS V14.01,2013-06-24 03:39:00,
2013-06-23 23:44:00,72.9,71.7,30.18,SE,132,0.0,0.0,96,0.00,,---,0.32,VWS V14.01,2013-06-24 03:44:00,
2013-06-23 23:49:00,72.9,71.4,30.18,SE,134,0.0,0.0,95,0.00,,---,0.32,VWS V14.01,2013-06-24 03:49:00,
2013-06-23 23:54:00,72.9,71.4,30.18,ESE,121,0.0,0.0,95,0.00,,---,0.32,VWS V14.01,2013-06-24 03:54:00,
2013-06-23 23:59:00,72.9,71.4,30.18,SE,138,0.0,0.0,95,0.00,,---,0.32,VWS V14.01,2013-06-24 03:59:00,